Regional Weather Roundup
Issued by NWS Northern Indiana

Home | Current Version | Previous Version | Text Only | Print | Product List | Glossary On
Versions: 1 2 3 4 5 6 7 8 9 10 11 12 13 14 15 16 17 18 19 20 21 22 23 24 25 26 27 28 29 30 31 32 33 34 35 36 37 38 39 40 41 42 43 44 45 46 47 48 49 50
000
ASUS43 KIWX 281610
RWRIWX

KIWX WEATHER ROUNDUP
NATIONAL WEATHER SERVICE NORTHERN INDIANA
1200 PM EDT MON JUL 28 2014

NOTE: "FAIR" INDICATES FEW OR NO CLOUDS BELOW 12,000 FEET WITH NO
SIGNIFICANT WEATHER AND/OR OBSTRUCTIONS TO VISIBILITY.

* THESE STATIONS ARE NOT UNDER NWS QUALITY CONTROL. THEY ALSO MAY NOT
  REPORT WEATHER SUCH AS PRECIPITATION OR FOG.

INZ001>027-281700-
NORTHERN INDIANA

CITY           SKY/WX    TMP DP  RH WIND       PRES   REMARKS
GARY*          PTSUNNY   63  52  67 N17G32    30.08R
VALPARAISO     CLOUDY    59  52  77 N8        30.06R
MICHIGAN CITY* CLOUDY    59  50  72 N14G23    30.06R
LAPORTE*       CLOUDY    58  53  81 N16G23    30.06R
KNOX*          CLOUDY    62  54  74 N14       30.03R
SOUTH BEND     CLOUDY    62  53  72 NW17      30.03R
ELKHART*       CLOUDY    63  54  72 NW12G18   30.02R
GOSHEN         CLOUDY    65  56  72 NW10      29.99R
MONTICELLO*    CLOUDY    65  57  73 N12       30.02R
LOGANSPORT*    CLOUDY    64  55  72 NW12      30.03R
ROCHESTER*     CLOUDY    68  55  64 NW13      30.02R
WARSAW*        CLOUDY    63  55  77 NW9       30.00R
ANGOLA*        PTSUNNY   66  59  77 N8        29.97R
FORT WAYNE     PTSUNNY   67  57  70 NW13G21   29.97R
HUNTINGTON*    CLOUDY    65  57  75 NW7       29.99R
PERU/GRISSOM   PTSUNNY   66  59  78 NW13      30.00R
MARION*        CLOUDY    65  56  72 N7        30.00R

$$
INZ028>050-281700-
CENTRAL INDIANA

CITY           SKY/WX    TMP DP  RH WIND       PRES   REMARKS
LAFAYETTE      PTSUNNY   68  55  63 N14G22    30.03R
KOKOMO*        PTSUNNY   66  57  72 NW15      30.00S
MUNCIE*        CLOUDY    67  58  72 NW15      29.98R
INDIANAPOLIS   CLOUDY    64  56  75 N12       30.01R

$$
MIZ043>046-050>051-056>058-064>065-071>073-077>080-281700-
SOUTHWEST LOWER MICHIGAN

CITY           SKY/WX    TMP DP  RH WIND       PRES   REMARKS
BATTLE CREEK   CLOUDY    65  54  67 W12       29.98R
BENTON HARBOR  CLOUDY    56  51  84 N9G21     30.04R
COLDWATER*     CLOUDY    67  56  69 NW10      29.97R
HILLSDALE*     MOSUNNY   68  57  67 NW14G21   29.95R
HOLLAND        CLOUDY    60  53  77 NW9       30.02R
GRAND RAPIDS   CLOUDY    64  56  75 NW12      29.99R
KALAMAZOO      CLOUDY    65  55  70 NW9       29.99S
STURGIS*       CLOUDY    64  55  72 N9        29.98R
THREE RIVERS*  CLOUDY    65  58  77 NW8       29.99R

$$
OHZ001>008-015>018-024>025-281700-
NORTHWEST OHIO

CITY           SKY/WX    TMP DP  RH WIND       PRES   REMARKS
WAUSEON*       PTSUNNY   70  55  60 NW12      29.93S
DEFIANCE       MOSUNNY   71  54  54 N14G21    29.94R
FINDLAY        PTSUNNY   71  56  58 NW15      29.91R
TOLEDO EXPRESS PTSUNNY   69  54  58 N14G20    29.91R
TOLEDO METCALF PTSUNNY   69  54  58 NW10      29.91S
LIMA           PTSUNNY   69  58  67 NW12      29.93R

$$
&&



USA.gov is the U.S. government's official web portal to all federal, state and local government web resources and services.